CZ-4 DEB, 26442

Orbit data source: Space-Track

CZ-4 DEB, 26442 is space debris in SSO originally from a launch on Thu, 14 Oct 1999 UTC launched from the Taiyaun Space Center, China (TSC). Debris objects in space refer to the collection of defunct objects orbiting the Earth. Examples of debris include non-operational satellites, rocket bodies, and fragments generated from explosions, collisions, or faulty payload assembly.

Loading next visibility...
Identifier
26442, 1999-057KP
Orbit
SSO
Country
Flag of CNCN / PRC
Related business
Manufacturer
Unknown
Mission
Spacecraft
Bus & Motor
Unknown
Mass
Unknown
Launch date (UTC)
1999-10-14 (26 years ago)
Launch vehicle
Unknown
Launch site
Taiyaun Space Center, China (TSC)
Object type
Payload
Rocket body
Debris
Shape & HBR
Unknown shape, 0.1 m
Radar Cross Section
Small (<0.1 m²)

Expand to show TLE details & history
Last TLE update: 21 hours ago

TLE from 21 hours ago
0 CZ-4 DEB
1 26442U 99057KP  25297.68844303  .00002925  00000-0  60524-3 0  9997
2 26442  98.5500 302.7182 0055307 218.8550 209.6499 14.60161266346622
Epoch: 2025-10-24T16:31Z
TLE epoch observation values (Epoch: 2025-10-24T16:31:21.477Z)
Latitude
66.73949°
Longitude
1.19082°
Altitude
738.215 km
Speed
7.474 km/s
True Right ascension
18h 49m 26s
True Declination
66° 36' 51"
Sunlit
Object was in daylight at epoch
Visualization orbit readout
Latitude
Unknown
Longitude
Unknown
Altitude
Unknown
Speed
Unknown
Apparent Right ascension
Unknown
Apparent Declination
Unknown
Sunlit
N/A
Visualization observer readout
Local Sidereal Time
08:45:15
Azimuth
Unknown
Elevation
Unknown
Doppler factor
Unknown
Orbital elements
Apogee altitude
728.841 km
Perigee altitude
650.66 km
Semi-major axis
7,067.888 km
Eccentricity
0.00553
Inclination
98.55°
RAAN
302.7182°
Arg. of periapsis
218.855°
True anomaly
209.33825°
Mean anomaly
209.6499°
Eccentric anomaly
209.49389°
Mean motion
3.65266 °/min
Orbital period
98.56 mins
BSTAR
0.00060524
Loading maneuver chart data...
Computing Atmospheric mass density...

Documentation

Showing up to 5 results
|